Starlink 35580

operational
NORAD ID: 66155 Int'l Des: 2025-240 Owner: SPXS Country: US Constellation: starlink
LEOCIRCULAR

关于 Starlink 35580

正在加载描述...

实时位置

正在加载3D地球...

即将过境

高度历史

Altitude vs Time

uPlot chart will show altitude changes over time

两行轨道根数

1 66155U 25240K 25349.58683127 .00015932 00000-0 54882-3 0 9999
2 66155 53.1582 93.3344 0000362 68.6237 291.4802 15.30201958 9119
Epoch: Dec 15, 2025 • Age: 24 hours

当前状态

高度 478.8 km
速度 7.63 km/s
星下点 40.95°N, 69.21°W
发射日期 Oct 25, 2025
运行时间 0.1 years
类型 internet

技术详情

分类 Payload
质量 575.00 kg
干质量 530.00 kg
总质量 575.00 kg
长度 0.30 m
直径 4.10 m
跨度 29.00 m
形状 Box + pan
制造商 SPXS
平台类型 Starlink V2MO
阶段状态 In Orbit
所有者/国家 SPXS/US

大型星座

Loading constellations...